User: anonymous
Location: Los Gatos B&B
(42.6926°N, 77.0646°W)
Time: 09:03:04
(UTC-04:00)
Language:

Cosmos 2263 Rocket - Orbit

View from above orbital plane
View from above orbital plane
View from above satellite
View from above satellite

Ground track
Ground track

The orbit data is extracted from the following two-line orbital elements,

1 22803U 93059B   14292.96957160  .00000254  00000-0  15114-3 0  4027
2 22803 070.9889 135.8967 0015443 060.1026 300.1629 14.16677661 90734
Epoch (UTC): 19 October 2014 23:16:10
Eccentricity: 0.0015443
inclination: 70.9889°
perigee height: 825 km
apogee height: 848 km
right ascension of ascending node: 135.8967°
argument of perigee: 60.1026°
revolutions per day: 14.16677661
mean anomaly at epoch: 300.1629°
orbit number at epoch: 9073

The dashed part of the orbit path shows where the satellite is in the earth's shadow,  

DLR